This demonstration page uses our WeatherBlox Daily Observations layout. Learn more.

Left ArrowRight Arrow

Hourly Observations for October 27, 2022

Temp ( °F °C ) Dew Point ( °F °C ) Humidity (%) Winds ( mph kmh ) Pressure ( in mb ) Visibility ( mi km ) Precip ( " mm )
12:51 am 00:51 Mostly Cloudy 49 9.4 32 0 52 52 E 5 7 29.81 1010 10 16 0.00 0.00
1:51 am 01:51 Cloudy 52 11.1 30 -1.1 43 43 Calm 29.82 1010 10 16 0.00 0.00
2:51 am 02:51 Partly Cloudy 48 8.9 34 1.1 58 58 Calm 29.82 1010 10 16 0.00 0.00
3:51 am 03:51 Clear 43 6.1 33 0.6 68 68 E 3 6 29.83 1010 10 16 0.00 0.00
4:51 am 04:51 Clear 43 6.1 32 0 65 65 ENE 6 9 29.85 1011 10 16 0.00 0.00
5:51 am 05:51 Clear 43 6.1 31 -0.6 62 62 E 5 7 29.87 1012 10 16 0.00 0.00
6:51 am 06:51 Sunny 43 6.1 31 -0.6 62 62 ENE 7 11 29.89 1012 10 16 0.00 0.00
7:51 am 07:51 Sunny 53 11.7 30 -1.1 41 41 SSE 5 7 29.91 1013 10 16 0.00 0.00
8:51 am 08:51 Sunny 56 13.3 30 -1.1 37 37 SE 3 6 29.92 1013 10 16 0.00 0.00
9:51 am 09:51 Sunny 62 16.7 29 -1.7 28 28 VRB 5 7 29.90 1013 10 16 0.00 0.00
10:51 am 10:51 Sunny 67 19.4 26 -3.3 21 21 WNW 18 30 29.88 1012 10 16 0.00 0.00
11:51 am 11:51 Sunny 69 20.6 26 -3.3 20 20 NW 22 35 29.87 1012 10 16 0.00 0.00
12:51 pm 12:51 Sunny 71 21.7 26 -3.3 18 18 WNW 18 30 29.84 1011 10 16 0.00 0.00
1:51 pm 13:51 Sunny 71 21.7 25 -3.9 18 18 WNW 25 41 29.82 1010 10 16 0.00 0.00
2:51 pm 14:51 Sunny 72 22.2 24 -4.4 16 16 WNW 26 43 29.83 1010 10 16 0.00 0.00
3:51 pm 15:51 Sunny 71 21.7 23 -5 16 16 WNW 20 31 29.85 1011 10 16 0.00 0.00
4:51 pm 16:51 Sunny 69 20.6 17 -8.3 13 13 WNW 25 41 29.88 1012 10 16 0.00 0.00
5:18 pm 17:18 Sunny 66 18.9 11 -11.7 11 11 N 18 30 29.86 1011 10 16 0.00 0.00
5:51 pm 17:51 Clear 62 16.7 7 -13.9 11 11 N 14 22 29.94 1014 10 16 0.00 0.00
6:51 pm 18:51 Clear 60 15.6 4 -15.6 10 10 N 12 19 30.00 1016 10 16 0.00 0.00
7:51 pm 19:51 Clear 54 12.2 8 -13.3 15 15 WSW 8 13 30.04 1017 10 16 0.00 0.00
8:51 pm 20:51 Clear 50 10 10 -12.2 20 20 N 5 7 30.08 1019 10 16 0.00 0.00
9:51 pm 21:51 Clear 51 10.6 9 -12.8 18 18 Calm 30.09 1019 10 16 0.00 0.00
10:51 pm 22:51 Clear 48 8.9 12 -11.1 23 23 Calm 30.11 1020 10 16 0.00 0.00
11:51 pm 23:51 Clear 43 6.1 13 -10.6 29 29 E 3 6 30.13 1020 10 16 0.00 0.00

Powered by AerisWeather